"read_dt","SO2 (ppb)","flags","PMT voltage (V)","lamp voltage (V)","lamp intensity (Hz)","internal temp (C)","react chamber temp (C)","sample flow (l/min)","pres (mmHg)","SO2 bkg (ppb)","SO2 coefficient"
2016-05-06 00:00:00,1918E-3,5C000400,-0724,0835,12192,032.3,045.6,0.247,755.2,01.16,0.508
2016-05-06 00:01:00,2035E-3,5C000400,-0724,0834,12105,032.3,045.6,0.247,755.2,01.16,0.508
2016-05-06 00:02:00,1984E-3,5C000400,-0724,0834,12107,032.3,045.5,0.247,755.2,01.16,0.508
2016-05-06 00:03:00,1975E-3,5C000400,-0724,0834,12155,032.3,045.6,0.247,755.2,01.16,0.508
2016-05-06 00:04:00,1985E-3,5C000400,-0724,0834,12183,032.3,045.6,0.247,755.2,01.16,0.508
2016-05-06 00:05:00,2056E-3,5C000400,-0724,0835,12268,032.3,045.6,0.247,755.2,01.16,0.508
2016-05-06 00:06:00,2031E-3,5C000400,-0724,0835,12263,032.3,045.6,0.247,755.2,01.16,0.508
2016-05-06 00:07:00,1869E-3,5C000400,-0724,0834,12296,032.3,045.5,0.246,755.2,01.16,0.508
2016-05-06 00:08:00,2061E-3,5C000400,-0724,0834,12167,032.3,045.6,0.247,755.1,01.16,0.508
2016-05-06 00:09:00,2085E-3,5C000400,-0724,0834,12098,032.3,045.6,0.248,755.1,01.16,0.508
2016-05-06 00:10:00,1907E-3,5C000400,-0724,0835,12149,032.3,045.6,0.248,755.1,01.16,0.508
2016-05-06 00:11:00,2074E-3,5C000400,-0724,0835,12147,032.3,045.6,0.247,755.2,01.16,0.508
2016-05-06 00:12:00,1951E-3,5C000400,-0724,0835,12087,032.3,045.5,0.247,755.2,01.16,0.508
2016-05-06 00:13:00,2000E-3,5C000400,-0724,0835,12154,032.3,045.6,0.247,755.2,01.16,0.508
2016-05-06 00:14:00,1997E-3,5C000400,-0724,0835,12275,032.3,045.6,0.247,755.2,01.16,0.508
2016-05-06 00:15:00,1871E-3,5C000400,-0724,0835,11963,032.4,045.6,0.247,755.2,01.16,0.508
2016-05-06 00:16:00,2037E-3,5C000400,-0724,0835,12238,032.4,045.6,0.247,755.2,01.16,0.508
2016-05-06 00:17:00,1968E-3,5C000400,-0724,0834,12105,032.4,045.6,0.247,755.2,01.16,0.508
2016-05-06 00:18:00,1907E-3,5C000400,-0724,0834,12154,032.4,045.6,0.247,755.2,01.16,0.508
2016-05-06 00:19:00,1973E-3,5C000400,-0724,0835,12167,032.4,045.6,0.247,755.2,01.16,0.508
2016-05-06 00:20:00,1788E-3,5C000400,-0724,0835,12266,032.4,045.6,0.247,755.2,01.16,0.508
2016-05-06 00:21:00,1966E-3,5C000400,-0724,0835,12145,032.4,045.6,0.247,755.2,01.16,0.508
2016-05-06 00:22:00,1979E-3,5C000400,-0724,0835,12201,032.4,045.6,0.247,755.2,01.16,0.508
2016-05-06 00:23:00,1972E-3,5C000400,-0724,0835,12081,032.4,045.6,0.247,755.2,01.16,0.508
2016-05-06 00:24:00,2073E-3,5C000400,-0724,0836,12154,032.4,045.6,0.247,755.2,01.16,0.508
2016-05-06 00:25:00,2008E-3,5C000400,-0724,0835,12182,032.4,045.6,0.247,755.2,01.16,0.508
2016-05-06 00:26:00,1980E-3,5C000400,-0724,0835,12070,032.4,045.6,0.247,755.2,01.16,0.508
2016-05-06 00:27:00,2053E-3,5C000400,-0724,0834,12105,032.4,045.6,0.247,755.2,01.16,0.508
2016-05-06 00:28:00,2016E-3,5C000400,-0724,0835,12084,032.4,045.6,0.247,755.2,01.16,0.508
2016-05-06 00:29:00,1975E-3,5C000400,-0724,0835,11891,032.5,045.6,0.246,755.2,01.16,0.508
2016-05-06 00:30:00,1844E-3,5C000400,-0724,0835,12029,032.5,045.6,0.247,755.2,01.16,0.508
2016-05-06 00:31:00,2027E-3,5C000400,-0724,0835,12149,032.5,045.6,0.247,755.2,01.16,0.508
2016-05-06 00:32:00,2034E-3,5C000400,-0724,0834,12197,032.5,045.6,0.247,755.2,01.16,0.508
2016-05-06 00:33:00,2006E-3,5C000400,-0724,0835,12212,032.5,045.6,0.247,755.2,01.16,0.508
2016-05-06 00:34:00,1922E-3,5C000400,-0724,0835,12156,032.5,045.6,0.247,755.2,01.16,0.508
2016-05-06 00:35:00,2003E-3,5C000400,-0724,0834,11982,032.5,045.6,0.246,755.2,01.16,0.508
2016-05-06 00:36:00,1892E-3,5C000400,-0724,0835,12091,032.5,045.6,0.247,755.2,01.16,0.508
2016-05-06 00:37:00,2014E-3,5C000400,-0724,0835,12067,032.5,045.6,0.247,755.2,01.16,0.508
2016-05-06 00:38:00,1927E-3,5C000400,-0724,0834,12174,032.5,045.6,0.247,755.2,01.16,0.508
2016-05-06 00:39:00,1988E-3,5C000400,-0724,0834,12027,032.5,045.6,0.247,755.2,01.16,0.508
2016-05-06 00:40:00,1886E-3,5C000400,-0724,0836,12060,032.6,045.6,0.246,755.2,01.16,0.508
2016-05-06 00:41:00,1902E-3,5C000400,-0724,0834,12098,032.5,045.6,0.246,755.2,01.16,0.508
2016-05-06 00:42:00,2037E-3,5C000400,-0724,0835,12095,032.5,045.6,0.247,755.2,01.16,0.508
2016-05-06 00:43:00,2045E-3,5C000400,-0724,0835,12271,032.6,045.6,0.247,755.2,01.16,0.508
2016-05-06 00:44:00,1923E-3,5C000400,-0724,0834,12139,032.6,045.6,0.247,755.3,01.16,0.508
2016-05-06 00:45:00,1868E-3,5C000400,-0724,0835,12108,032.6,045.6,0.247,755.3,01.16,0.508
2016-05-06 00:46:00,1872E-3,5C000400,-0724,0834,12183,032.6,045.6,0.246,755.3,01.16,0.508
2016-05-06 00:47:00,1986E-3,5C000400,-0724,0835,12105,032.6,045.6,0.246,755.3,01.16,0.508
2016-05-06 00:48:00,1836E-3,5C000400,-0724,0834,12050,032.6,045.6,0.247,755.3,01.16,0.508
2016-05-06 00:49:00,1933E-3,5C000400,-0724,0835,12069,032.6,045.6,0.247,755.3,01.16,0.508
2016-05-06 00:50:00,2095E-3,5C000400,-0724,0835,12216,032.6,045.6,0.247,755.2,01.16,0.508
2016-05-06 00:51:00,1995E-3,5C000400,-0724,0835,12087,032.6,045.6,0.247,755.3,01.16,0.508
2016-05-06 00:52:00,1928E-3,5C000400,-0724,0835,12181,032.6,045.6,0.246,755.3,01.16,0.508
2016-05-06 00:53:00,1964E-3,5C000400,-0724,0835,11974,032.6,045.6,0.246,755.3,01.16,0.508
2016-05-06 00:54:00,1929E-3,5C000400,-0724,0835,12123,032.6,045.6,0.246,755.3,01.16,0.508
2016-05-06 00:55:00,1896E-3,5C000400,-0724,0834,12207,032.6,045.6,0.247,755.3,01.16,0.508
2016-05-06 00:56:00,2057E-3,5C000400,-0724,0834,12018,032.6,045.6,0.247,755.3,01.16,0.508
2016-05-06 00:57:00,2056E-3,5C000400,-0724,0835,12127,032.7,045.6,0.246,755.3,01.16,0.508
2016-05-06 00:58:00,1859E-3,5C000400,-0724,0834,12178,032.7,045.6,0.246,755.3,01.16,0.508
2016-05-06 00:59:00,1987E-3,5C000400,-0724,0834,12183,032.7,045.6,0.246,755.4,01.16,0.508
2016-05-06 01:00:00,2043E-3,5C000400,-0724,0835,12093,032.7,045.6,0.246,755.4,01.16,0.508
2016-05-06 01:01:00,1885E-3,5C000400,-0724,0835,12186,032.7,045.6,0.247,755.4,01.16,0.508
2016-05-06 01:02:00,2005E-3,5C000400,-0724,0835,12224,032.7,045.6,0.246,755.4,01.16,0.508
2016-05-06 01:03:00,1995E-3,5C000400,-0724,0834,12151,032.7,045.6,0.246,755.4,01.16,0.508
2016-05-06 01:04:00,1974E-3,5C000400,-0724,0835,12095,032.7,045.6,0.246,755.4,01.16,0.508
2016-05-06 01:05:00,1990E-3,5C000400,-0724,0835,11961,032.7,045.6,0.246,755.4,01.16,0.508
2016-05-06 01:06:00,1825E-3,5C000400,-0724,0835,12127,032.7,045.6,0.246,755.4,01.16,0.508
2016-05-06 01:07:00,1875E-3,5C000400,-0724,0834,12149,032.7,045.6,0.246,755.4,01.16,0.508
2016-05-06 01:08:00,1994E-3,5C000400,-0724,0834,12168,032.7,045.6,0.247,755.4,01.16,0.508
2016-05-06 01:09:00,1873E-3,5C000400,-0724,0835,12175,032.7,045.6,0.247,755.4,01.16,0.508
2016-05-06 01:10:00,1915E-3,5C000400,-0724,0835,12123,032.8,045.6,0.247,755.4,01.16,0.508
2016-05-06 01:11:00,1850E-3,5C000400,-0724,0835,12153,032.8,045.6,0.246,755.5,01.16,0.508
2016-05-06 01:12:00,1997E-3,5C000400,-0724,0835,12253,032.8,045.6,0.246,755.5,01.16,0.508
2016-05-06 01:13:00,1863E-3,5C000400,-0724,0835,11042,032.8,045.6,0.246,755.5,01.16,0.508
2016-05-06 01:14:00,2093E-3,5C000400,-0724,0835,12121,032.7,045.6,0.246,755.5,01.16,0.508
2016-05-06 01:15:00,2063E-3,5C000400,-0724,0836,12176,032.8,045.6,0.246,755.5,01.16,0.508
2016-05-06 01:16:00,1968E-3,5C000400,-0724,0835,12282,032.8,045.6,0.246,755.5,01.16,0.508
2016-05-06 01:17:00,1913E-3,5C000400,-0724,0836,12056,032.8,045.6,0.246,755.5,01.16,0.508
2016-05-06 01:18:00,1849E-3,5C000400,-0724,0835,12239,032.8,045.6,0.246,755.5,01.16,0.508
2016-05-06 01:19:00,2000E-3,5C000400,-0724,0836,12077,032.8,045.6,0.246,755.5,01.16,0.508
2016-05-06 01:20:00,1874E-3,5C000400,-0724,0834,11876,032.8,045.6,0.246,755.5,01.16,0.508
2016-05-06 01:21:00,2107E-3,5C000400,-0724,0835,12177,032.8,045.6,0.246,755.6,01.16,0.508
2016-05-06 01:22:00,2012E-3,5C000400,-0724,0834,12256,032.8,045.6,0.246,755.5,01.16,0.508
2016-05-06 01:23:00,1979E-3,5C000400,-0724,0835,12140,032.8,045.6,0.246,755.5,01.16,0.508
2016-05-06 01:24:00,1986E-3,5C000400,-0724,0835,12190,032.8,045.6,0.246,755.5,01.16,0.508
2016-05-06 01:25:00,1924E-3,5C000400,-0724,0835,12156,032.8,045.6,0.246,755.5,01.16,0.508
2016-05-06 01:26:00,2046E-3,5C000400,-0724,0835,12178,032.8,045.6,0.246,755.5,01.16,0.508
2016-05-06 01:27:00,2022E-3,5C000400,-0724,0835,12202,032.8,045.6,0.246,755.6,01.16,0.508
2016-05-06 01:28:00,1828E-3,5C000400,-0724,0835,12200,032.8,045.6,0.246,755.5,01.16,0.508
2016-05-06 01:29:00,1942E-3,5C000400,-0724,0835,12183,032.8,045.6,0.246,755.5,01.16,0.508
2016-05-06 01:30:00,1894E-3,5C000400,-0724,0835,12048,032.8,045.6,0.246,755.6,01.16,0.508
2016-05-06 01:31:00,1808E-3,5C000400,-0724,0835,12031,032.8,045.6,0.246,755.6,01.16,0.508
2016-05-06 01:32:00,1920E-3,5C000400,-0724,0835,12092,032.9,045.6,0.245,755.6,01.16,0.508
2016-05-06 01:33:00,1937E-3,5C000400,-0724,0835,12210,032.8,045.6,0.246,755.6,01.16,0.508
2016-05-06 01:34:00,2005E-3,5C000400,-0724,0835,12124,032.9,045.6,0.246,755.6,01.16,0.508
2016-05-06 01:35:00,1931E-3,5C000400,-0724,0836,12199,032.9,045.6,0.246,755.6,01.16,0.508
2016-05-06 01:36:00,1812E-3,5C000400,-0724,0835,12100,032.9,045.6,0.246,755.6,01.16,0.508
2016-05-06 01:37:00,2011E-3,5C000400,-0724,0835,12041,032.9,045.6,0.246,755.6,01.16,0.508
2016-05-06 01:38:00,1983E-3,5C000400,-0724,0835,12234,032.9,045.6,0.246,755.7,01.16,0.508
2016-05-06 01:39:00,2029E-3,5C000400,-0724,0836,11975,032.9,045.6,0.246,755.6,01.16,0.508
2016-05-06 01:40:00,2119E-3,5C000400,-0724,0835,12186,032.9,045.6,0.246,755.6,01.16,0.508
2016-05-06 01:41:00,1931E-3,5C000400,-0724,0835,12184,032.9,045.6,0.246,755.6,01.16,0.508
2016-05-06 01:42:00,2003E-3,5C000400,-0724,0835,12132,032.9,045.6,0.246,755.6,01.16,0.508
2016-05-06 01:43:00,1901E-3,5C000400,-0724,0835,12098,032.8,045.6,0.245,755.6,01.16,0.508
2016-05-06 01:44:00,1933E-3,5C000400,-0724,0835,12232,032.8,045.6,0.245,755.7,01.16,0.508
2016-05-06 01:45:00,1915E-3,5C000400,-0724,0834,12238,032.7,045.6,0.246,755.7,01.16,0.508
2016-05-06 01:46:00,1860E-3,5C000400,-0724,0835,12143,032.6,045.6,0.246,755.7,01.16,0.508
2016-05-06 01:47:00,1980E-3,5C000400,-0724,0836,12335,032.5,045.6,0.246,755.6,01.16,0.508
2016-05-06 01:48:00,1808E-3,5C000400,-0724,0835,12132,032.5,045.6,0.246,755.7,01.16,0.508
2016-05-06 01:49:00,1860E-3,5C000400,-0724,0834,12244,032.4,045.6,0.246,755.7,01.16,0.508
2016-05-06 01:50:00,1972E-3,5C000400,-0724,0835,12102,032.3,045.6,0.246,755.7,01.16,0.508
2016-05-06 01:51:00,2003E-3,5C000400,-0724,0835,12132,032.3,045.6,0.246,755.7,01.16,0.508
2016-05-06 01:52:00,2007E-3,5C000400,-0724,0835,12103,032.3,045.6,0.246,755.7,01.16,0.508
2016-05-06 01:53:00,1823E-3,5C000400,-0724,0834,12228,032.2,045.6,0.247,755.8,01.16,0.508
2016-05-06 01:54:00,1958E-3,5C000400,-0724,0835,12142,032.2,045.6,0.247,755.8,01.16,0.508
2016-05-06 01:55:00,1998E-3,5C000400,-0724,0834,12149,032.1,045.5,0.247,755.8,01.16,0.508
2016-05-06 01:56:00,1943E-3,5C000400,-0724,0834,12154,032.1,045.5,0.247,755.8,01.16,0.508
2016-05-06 01:57:00,1876E-3,5C000400,-0724,0834,11994,032.1,045.6,0.247,755.8,01.16,0.508
2016-05-06 01:58:00,1915E-3,5C000400,-0724,0835,11131,032.0,045.6,0.247,755.7,01.16,0.508
2016-05-06 01:59:00,2042E-3,5C000400,-0724,0834,12085,031.9,045.5,0.247,755.8,01.16,0.508
2016-05-06 02:00:00,1866E-3,5C000400,-0724,0834,12194,031.9,045.6,0.247,755.7,01.16,0.508
2016-05-06 02:01:00,1963E-3,5C000400,-0724,0834,12097,031.9,045.5,0.247,755.7,01.16,0.508
2016-05-06 02:02:00,1980E-3,5C000400,-0724,0835,12202,031.9,045.5,0.247,755.7,01.16,0.508
2016-05-06 02:03:00,1871E-3,5C000400,-0724,0835,12206,031.8,045.5,0.247,755.7,01.16,0.508
2016-05-06 02:04:00,1888E-3,5C000400,-0724,0834,12138,031.8,045.5,0.247,755.8,01.16,0.508
2016-05-06 02:05:00,1880E-3,5C000400,-0724,0834,12073,031.8,045.5,0.247,755.8,01.16,0.508
2016-05-06 02:06:00,1894E-3,5C000400,-0724,0834,12140,031.7,045.5,0.248,755.8,01.16,0.508
2016-05-06 02:07:00,1994E-3,5C000400,-0724,0833,12221,031.6,045.5,0.248,755.8,01.16,0.508
2016-05-06 02:08:00,2000E-3,5C000400,-0724,0834,12104,031.7,045.5,0.248,755.7,01.16,0.508
2016-05-06 02:09:00,1975E-3,5C000400,-0724,0834,12125,031.6,045.5,0.248,755.8,01.16,0.508
2016-05-06 02:10:00,1829E-3,5C000400,-0724,0834,12172,031.6,045.5,0.249,755.8,01.16,0.508
2016-05-06 02:11:00,1979E-3,5C000400,-0724,0834,12194,031.6,045.5,0.248,755.8,01.16,0.508
2016-05-06 02:12:00,1985E-3,5C000400,-0724,0835,12164,031.6,045.5,0.248,755.8,01.16,0.508
2016-05-06 02:13:00,1993E-3,5C000400,-0724,0834,12158,031.5,045.5,0.248,755.8,01.16,0.508
2016-05-06 02:14:00,1853E-3,5C000400,-0724,0835,12170,031.5,045.5,0.248,755.8,01.16,0.508
2016-05-06 02:15:00,1980E-3,5C000400,-0724,0834,12321,031.5,045.5,0.248,755.9,01.16,0.508
2016-05-06 02:16:00,2040E-3,5C000400,-0724,0834,12140,031.4,045.5,0.248,755.9,01.16,0.508
2016-05-06 02:17:00,2032E-3,5C000400,-0724,0834,12192,031.4,045.5,0.248,755.9,01.16,0.508
2016-05-06 02:18:00,1948E-3,5C000400,-0724,0834,12169,031.4,045.5,0.248,755.9,01.16,0.508
2016-05-06 02:19:00,2023E-3,5C000400,-0724,0833,12134,031.3,045.5,0.248,755.9,01.16,0.508
2016-05-06 02:20:00,1869E-3,5C000400,-0724,0835,12282,031.3,045.5,0.248,755.9,01.16,0.508
2016-05-06 02:21:00,1881E-3,5C000400,-0724,0835,12207,031.3,045.5,0.248,755.9,01.16,0.508
2016-05-06 02:22:00,2134E-3,5C000400,-0724,0834,12186,031.3,045.5,0.248,755.9,01.16,0.508
2016-05-06 02:23:00,1842E-3,5C000400,-0724,0834,12079,031.2,045.5,0.248,756.0,01.16,0.508
2016-05-06 02:24:00,1876E-3,5C000400,-0724,0833,12192,031.3,045.5,0.249,756.0,01.16,0.508
2016-05-06 02:25:00,2049E-3,5C000400,-0724,0833,12075,031.3,045.5,0.249,756.0,01.16,0.508
2016-05-06 02:26:00,1951E-3,5C000400,-0724,0834,12257,031.3,045.5,0.249,755.9,01.16,0.508
2016-05-06 02:27:00,1906E-3,5C000400,-0724,0833,12117,031.3,045.5,0.249,756.0,01.16,0.508
2016-05-06 02:28:00,1942E-3,5C000400,-0724,0833,12180,031.3,045.5,0.249,755.9,01.16,0.508
2016-05-06 02:29:00,1961E-3,5C000400,-0724,0834,12071,031.3,045.5,0.249,755.9,01.16,0.508
2016-05-06 02:30:00,2046E-3,5C000400,-0724,0835,12236,031.3,045.5,0.249,755.9,01.16,0.508
2016-05-06 02:31:00,1869E-3,5C000400,-0724,0833,12160,031.3,045.5,0.249,756.0,01.16,0.508
2016-05-06 02:32:00,1871E-3,5C000400,-0724,0834,12060,031.3,045.5,0.249,755.9,01.16,0.508
2016-05-06 02:33:00,2011E-3,5C000400,-0724,0834,12150,031.3,045.5,0.249,755.9,01.16,0.508
2016-05-06 02:34:00,1942E-3,5C000400,-0724,0835,12062,031.3,045.5,0.249,755.9,01.16,0.508
2016-05-06 02:35:00,1858E-3,5C000400,-0724,0834,12107,031.3,045.5,0.249,755.9,01.16,0.508
2016-05-06 02:36:00,1906E-3,5C000400,-0724,0834,12284,031.2,045.5,0.250,755.9,01.16,0.508
2016-05-06 02:37:00,2055E-3,5C000400,-0724,0834,12059,031.2,045.5,0.249,755.9,01.16,0.508
2016-05-06 02:38:00,1855E-3,5C000400,-0724,0835,12160,031.2,045.5,0.249,755.9,01.16,0.508
2016-05-06 02:39:00,2076E-3,5C000400,-0724,0835,12208,031.2,045.5,0.249,755.9,01.16,0.508
2016-05-06 02:40:00,1891E-3,5C000400,-0724,0835,12393,031.2,045.5,0.249,756.0,01.16,0.508
2016-05-06 02:41:00,1868E-3,5C000400,-0724,0834,12267,031.1,045.5,0.249,755.9,01.16,0.508
2016-05-06 02:42:00,1977E-3,5C000400,-0724,0835,12217,031.1,045.5,0.249,756.0,01.16,0.508
2016-05-06 02:43:00,2041E-3,5C000400,-0724,0833,12119,031.1,045.5,0.249,756.0,01.16,0.508
2016-05-06 02:44:00,1916E-3,5C000400,-0724,0833,12079,031.1,045.5,0.249,756.0,01.16,0.508
2016-05-06 02:45:00,1907E-3,5C000400,-0724,0835,12160,031.1,045.5,0.249,756.0,01.16,0.508
2016-05-06 02:46:00,1946E-3,5C000400,-0724,0833,12172,031.0,045.5,0.250,756.0,01.16,0.508
2016-05-06 02:47:00,1997E-3,5C000400,-0724,0834,12168,031.0,045.5,0.250,756.0,01.16,0.508
2016-05-06 02:48:00,1934E-3,5C000400,-0724,0835,12195,031.0,045.5,0.250,756.0,01.16,0.508
2016-05-06 02:49:00,1974E-3,5C000400,-0724,0834,11941,031.0,045.5,0.250,756.0,01.16,0.508
2016-05-06 02:50:00,1998E-3,5C000400,-0724,0835,12136,031.0,045.5,0.250,756.0,01.16,0.508
2016-05-06 02:51:00,1958E-3,5C000400,-0724,0834,12062,031.0,045.5,0.250,756.0,01.16,0.508
2016-05-06 02:52:00,1912E-3,5C000400,-0724,0835,12106,031.0,045.5,0.250,756.1,01.16,0.508
2016-05-06 02:53:00,2017E-3,5C000400,-0724,0833,12076,030.9,045.5,0.250,756.1,01.16,0.508
2016-05-06 02:54:00,1965E-3,5C000400,-0724,0834,12204,030.9,045.5,0.250,756.1,01.16,0.508
2016-05-06 02:55:00,1951E-3,5C000400,-0724,0834,12128,030.9,045.5,0.249,756.1,01.16,0.508
2016-05-06 02:56:00,2002E-3,5C000400,-0724,0834,12083,030.9,045.5,0.249,756.1,01.16,0.508
2016-05-06 02:57:00,1991E-3,5C000400,-0724,0833,12094,030.9,045.5,0.250,756.1,01.16,0.508
2016-05-06 02:58:00,2020E-3,5C000400,-0724,0834,12174,030.9,045.5,0.250,756.1,01.16,0.508
2016-05-06 02:59:00,2027E-3,5C000400,-0724,0834,12159,030.8,045.5,0.250,756.1,01.16,0.508
2016-05-06 03:00:00,1989E-3,5C000400,-0724,0835,12172,030.8,045.5,0.250,756.1,01.16,0.508
2016-05-06 03:01:00,2055E-3,5C000400,-0724,0835,12246,030.8,045.5,0.250,756.1,01.16,0.508
2016-05-06 03:02:00,1986E-3,5C000400,-0724,0834,12063,030.8,045.5,0.250,756.1,01.16,0.508
2016-05-06 03:03:00,1944E-3,5C000400,-0724,0834,12295,030.8,045.5,0.250,756.1,01.16,0.508
2016-05-06 03:04:00,1989E-3,5C000400,-0724,0834,12105,030.8,045.5,0.250,756.1,01.16,0.508
2016-05-06 03:05:00,1983E-3,5C000400,-0724,0834,12135,030.8,045.5,0.250,756.1,01.16,0.508
2016-05-06 03:06:00,1911E-3,5C000400,-0724,0834,12047,030.8,045.5,0.250,756.1,01.16,0.508
2016-05-06 03:07:00,1812E-3,5C000400,-0724,0833,12101,030.8,045.5,0.250,756.1,01.16,0.508
2016-05-06 03:08:00,2005E-3,5C000400,-0724,0834,12154,030.8,045.5,0.250,756.1,01.16,0.508
2016-05-06 03:09:00,1806E-3,5C000400,-0724,0833,12005,030.8,045.5,0.250,756.1,01.16,0.508
2016-05-06 03:10:00,1949E-3,5C000400,-0724,0835,12171,030.8,045.5,0.250,756.1,01.16,0.508
2016-05-06 03:11:00,1964E-3,5C000400,-0724,0834,12162,030.8,045.5,0.250,756.1,01.16,0.508
2016-05-06 03:12:00,1995E-3,5C000400,-0724,0833,12100,030.9,045.5,0.250,756.1,01.16,0.508
2016-05-06 03:13:00,1936E-3,5C000400,-0724,0833,12177,030.8,045.5,0.250,756.1,01.16,0.508
2016-05-06 03:14:00,1892E-3,5C000400,-0724,0834,12174,030.9,045.5,0.250,756.1,01.16,0.508
2016-05-06 03:15:00,1859E-3,5C000400,-0724,0834,12126,030.9,045.5,0.250,756.1,01.16,0.508
2016-05-06 03:16:00,1966E-3,5C000400,-0724,0834,12173,030.9,045.5,0.250,756.1,01.16,0.508
2016-05-06 03:17:00,2056E-3,5C000400,-0724,0834,12235,030.9,045.5,0.250,756.2,01.16,0.508
2016-05-06 03:18:00,2061E-3,5C000400,-0724,0834,12124,030.8,045.5,0.250,756.2,01.16,0.508
2016-05-06 03:19:00,1812E-3,5C000400,-0724,0834,12240,030.8,045.5,0.250,756.2,01.16,0.508
2016-05-06 03:20:00,2051E-3,5C000400,-0724,0834,12164,030.8,045.5,0.250,756.2,01.16,0.508
2016-05-06 03:21:00,2024E-3,5C000400,-0724,0834,12127,030.8,045.5,0.250,756.2,01.16,0.508
2016-05-06 03:22:00,1881E-3,5C000400,-0724,0834,12140,030.7,045.5,0.250,756.2,01.16,0.508
2016-05-06 03:23:00,1851E-3,5C000400,-0724,0833,12186,030.7,045.5,0.250,756.2,01.16,0.508
2016-05-06 03:24:00,1830E-3,5C000400,-0724,0833,12262,030.7,045.5,0.250,756.1,01.16,0.508
2016-05-06 03:25:00,2023E-3,5C000400,-0724,0835,12087,030.7,045.5,0.250,756.2,01.16,0.508
2016-05-06 03:26:00,1947E-3,5C000400,-0724,0833,12134,030.7,045.5,0.250,756.1,01.16,0.508
2016-05-06 03:27:00,1893E-3,5C000400,-0724,0833,12114,030.6,045.5,0.250,756.2,01.16,0.508
2016-05-06 03:28:00,1948E-3,5C000400,-0724,0834,12090,030.6,045.5,0.250,756.2,01.16,0.508
2016-05-06 03:29:00,1965E-3,5C000400,-0724,0834,12064,030.6,045.5,0.250,756.2,01.16,0.508
2016-05-06 03:30:00,2028E-3,5C000400,-0724,0834,12072,030.6,045.5,0.250,756.2,01.16,0.508
2016-05-06 03:31:00,1955E-3,5C000400,-0724,0834,12273,030.6,045.5,0.251,756.2,01.16,0.508
2016-05-06 03:32:00,2006E-3,5C000400,-0724,0834,12100,030.6,045.5,0.251,756.2,01.16,0.508
2016-05-06 03:33:00,2043E-3,5C000400,-0724,0834,12095,030.6,045.5,0.250,756.2,01.16,0.508
2016-05-06 03:34:00,1928E-3,5C000400,-0724,0834,12211,030.6,045.5,0.250,756.2,01.16,0.508
2016-05-06 03:35:00,1944E-3,5C000400,-0724,0834,12105,030.6,045.5,0.250,756.2,01.16,0.508
2016-05-06 03:36:00,1799E-3,5C000400,-0724,0833,11932,030.7,045.5,0.250,756.2,01.16,0.508
2016-05-06 03:37:00,1940E-3,5C000400,-0724,0834,12264,030.6,045.5,0.250,756.2,01.16,0.508
2016-05-06 03:38:00,1919E-3,5C000400,-0724,0834,12083,030.6,045.5,0.251,756.2,01.16,0.508
2016-05-06 03:39:00,1986E-3,5C000400,-0724,0834,12208,030.6,045.5,0.251,756.3,01.16,0.508
2016-05-06 03:40:00,2040E-3,5C000400,-0724,0834,12142,030.6,045.5,0.251,756.2,01.16,0.508
2016-05-06 03:41:00,2008E-3,5C000400,-0724,0834,12080,030.6,045.5,0.251,756.2,01.16,0.508
2016-05-06 03:42:00,1892E-3,5C000400,-0724,0835,12185,030.5,045.5,0.251,756.2,01.16,0.508
2016-05-06 03:43:00,1915E-3,5C000400,-0724,0834,12176,030.6,045.5,0.250,756.3,01.16,0.508
2016-05-06 03:44:00,1996E-3,5C000400,-0724,0834,12285,030.5,045.5,0.250,756.3,01.16,0.508
2016-05-06 03:45:00,2095E-3,5C000400,-0724,0834,12245,030.5,045.5,0.250,756.3,01.16,0.508
2016-05-06 03:46:00,2012E-3,5C000400,-0724,0833,12133,030.5,045.5,0.250,756.3,01.16,0.508
2016-05-06 03:47:00,2005E-3,5C000400,-0724,0834,11218,030.5,045.5,0.251,756.3,01.16,0.508
2016-05-06 03:48:00,2045E-3,5C000400,-0724,0834,12164,030.5,045.5,0.251,756.3,01.16,0.508
2016-05-06 03:49:00,1952E-3,5C000400,-0724,0834,12146,030.5,045.5,0.251,756.3,01.16,0.508
2016-05-06 03:50:00,1971E-3,5C000400,-0724,0834,12101,030.5,045.5,0.251,756.3,01.16,0.508
2016-05-06 03:51:00,1988E-3,5C000400,-0724,0834,12234,030.5,045.5,0.251,756.3,01.16,0.508
2016-05-06 03:52:00,1906E-3,5C000400,-0724,0834,12032,030.5,045.5,0.251,756.3,01.16,0.508
2016-05-06 03:53:00,1907E-3,5C000400,-0724,0835,12112,030.4,045.5,0.251,756.3,01.16,0.508
2016-05-06 03:54:00,1858E-3,5C000400,-0724,0834,12032,030.5,045.5,0.250,756.3,01.16,0.508
2016-05-06 03:55:00,1829E-3,5C000400,-0724,0834,12033,030.5,045.5,0.250,756.3,01.16,0.508
2016-05-06 03:56:00,2068E-3,5C000400,-0724,0834,12300,030.5,045.5,0.250,756.3,01.16,0.508
2016-05-06 03:57:00,1933E-3,5C000400,-0724,0834,12190,030.5,045.5,0.251,756.3,01.16,0.508
2016-05-06 03:58:00,1942E-3,5C000400,-0724,0834,12142,030.4,045.5,0.251,756.3,01.16,0.508
2016-05-06 03:59:00,1822E-3,5C000400,-0724,0835,12188,030.4,045.5,0.251,756.3,01.16,0.508
2016-05-06 04:00:00,1959E-3,5C000400,-0724,0834,12171,030.4,045.5,0.251,756.4,01.16,0.508
2016-05-06 04:01:00,1947E-3,5C000400,-0724,0834,12248,030.4,045.5,0.251,756.3,01.16,0.508
2016-05-06 04:02:00,2015E-3,5C000400,-0724,0833,12201,030.4,045.5,0.251,756.3,01.16,0.508
2016-05-06 04:03:00,1862E-3,5C000400,-0724,0834,12142,030.4,045.5,0.251,756.3,01.16,0.508
2016-05-06 04:04:00,1795E-3,5C000400,-0724,0834,12221,030.4,045.5,0.251,756.3,01.16,0.508
2016-05-06 04:05:00,1803E-3,5C000400,-0724,0833,12236,030.4,045.5,0.251,756.3,01.16,0.508
2016-05-06 04:06:00,1838E-3,5C000400,-0724,0834,11995,030.4,045.5,0.250,756.4,01.16,0.508
2016-05-06 04:07:00,1835E-3,5C000400,-0724,0833,12181,030.3,045.5,0.251,756.4,01.16,0.508
2016-05-06 04:08:00,1874E-3,5C000400,-0724,0834,12206,030.3,045.5,0.251,756.3,01.16,0.508
2016-05-06 04:09:00,1996E-3,5C000400,-0724,0834,12272,030.3,045.5,0.251,756.3,01.16,0.508
2016-05-06 04:10:00,2002E-3,5C000400,-0724,0834,12203,030.3,045.5,0.251,756.3,01.16,0.508
2016-05-06 04:11:00,1905E-3,5C000400,-0724,0834,12147,030.3,045.5,0.251,756.4,01.16,0.508
2016-05-06 04:12:00,1951E-3,5C000400,-0724,0834,12208,030.3,045.5,0.251,756.4,01.16,0.508
2016-05-06 04:13:00,1909E-3,5C000400,-0724,0834,12197,030.3,045.5,0.251,756.4,01.16,0.508
2016-05-06 04:14:00,1842E-3,5C000400,-0724,0834,11990,030.3,045.5,0.251,756.4,01.16,0.508
2016-05-06 04:15:00,1913E-3,5C000400,-0724,0834,12185,030.4,045.5,0.251,756.4,01.16,0.508
2016-05-06 04:16:00,2094E-3,5C000400,-0724,0834,12109,030.4,045.5,0.251,756.4,01.16,0.508
2016-05-06 04:17:00,2016E-3,5C000400,-0724,0833,12203,030.4,045.5,0.251,756.4,01.16,0.508
2016-05-06 04:18:00,1911E-3,5C000400,-0724,0833,12176,030.5,045.5,0.251,756.4,01.16,0.508
2016-05-06 04:19:00,1970E-3,5C000400,-0724,0833,12246,030.4,045.5,0.251,756.4,01.16,0.508
2016-05-06 04:20:00,1902E-3,5C000400,-0724,0834,12217,030.4,045.5,0.251,756.4,01.16,0.508